Time,TemperatureF,DewpointF,PressureIn,WindDirection,WindDirectionDegrees,WindSpeedMPH,WindSpeedGustMPH,Humidity,HourlyPrecipIn,Conditions,Clouds,dailyrainin,SoftwareType,DateUTC
2017-10-17 00:02:00,75.2,45.5,29.95,North,0,0.0,0.0,35,0.00,,,0.00,WUHU216HW,2017-10-17 07:02:00,
2017-10-17 00:07:00,75.2,45.5,29.95,North,0,0.0,0.0,35,0.00,,,0.00,WUHU216HW,2017-10-17 07:07:00,
2017-10-17 00:12:00,75.1,45.4,29.95,North,0,0.0,0.0,35,0.00,,,0.00,WUHU216HW,2017-10-17 07:12:00,
2017-10-17 00:17:00,74.9,46.0,29.95,North,0,0.0,0.0,36,0.00,,,0.00,WUHU216HW,2017-10-17 07:17:00,
2017-10-17 00:22:00,74.7,46.5,29.95,North,0,0.0,0.0,37,0.00,,,0.00,WUHU216HW,2017-10-17 07:22:00,
2017-10-17 00:27:00,74.5,46.5,29.95,North,0,0.0,0.0,37,0.00,,,0.00,WUHU216HW,2017-10-17 07:27:00,
2017-10-17 00:32:00,74.3,46.3,29.95,North,0,0.0,0.0,37,0.00,,,0.00,WUHU216HW,2017-10-17 07:32:00,
2017-10-17 00:37:00,74.2,46.1,29.95,North,0,0.0,0.0,37,0.00,,,0.00,WUHU216HW,2017-10-17 07:37:00,
2017-10-17 00:42:00,74.2,46.1,29.95,North,0,0.0,0.0,37,0.00,,,0.00,WUHU216HW,2017-10-17 07:42:00,
2017-10-17 00:47:00,74.2,46.1,29.95,North,0,0.0,0.0,37,0.00,,,0.00,WUHU216HW,2017-10-17 07:47:00,
2017-10-17 00:52:00,74.2,46.1,29.95,North,0,0.0,0.0,37,0.00,,,0.00,WUHU216HW,2017-10-17 07:52:00,
2017-10-17 00:57:00,74.2,46.1,29.95,North,0,0.0,0.0,37,0.00,,,0.00,WUHU216HW,2017-10-17 07:57:00,
2017-10-17 01:02:00,74.2,46.1,29.95,North,0,0.0,0.0,37,0.00,,,0.00,WUHU216HW,2017-10-17 08:02:00,
2017-10-17 01:07:00,74.0,45.9,29.95,North,0,0.0,0.0,37,0.00,,,0.00,WUHU216HW,2017-10-17 08:07:00,
2017-10-17 01:17:00,74.0,45.9,29.95,North,0,0.0,0.0,37,0.00,,,0.00,WUHU216HW,2017-10-17 08:17:00,
2017-10-17 01:22:00,73.8,45.7,29.95,North,0,0.0,0.0,37,0.00,,,0.00,WUHU216HW,2017-10-17 08:22:00,
2017-10-17 01:27:00,73.6,46.4,29.95,North,0,0.0,0.0,38,0.00,,,0.00,WUHU216HW,2017-10-17 08:27:00,
2017-10-17 01:32:00,73.4,46.2,29.95,North,0,0.0,0.0,38,0.00,,,0.00,WUHU216HW,2017-10-17 08:32:00,
2017-10-17 01:37:00,73.4,46.2,29.95,North,0,0.0,0.0,38,0.00,,,0.00,WUHU216HW,2017-10-17 08:37:00,
2017-10-17 01:42:00,73.4,46.2,29.95,North,0,0.0,0.0,38,0.00,,,0.00,WUHU216HW,2017-10-17 08:42:00,
2017-10-17 01:47:00,73.6,46.4,29.95,North,0,0.0,0.0,38,0.00,,,0.00,WUHU216HW,2017-10-17 08:47:00,
2017-10-17 01:52:00,73.8,46.5,29.95,North,0,0.0,0.0,38,0.00,,,0.00,WUHU216HW,2017-10-17 08:52:00,
2017-10-17 01:57:00,74.2,46.8,29.95,North,0,0.0,0.0,38,0.00,,,0.00,WUHU216HW,2017-10-17 08:57:00,
2017-10-17 02:02:00,74.2,46.8,29.95,North,0,0.0,0.0,38,0.00,,,0.00,WUHU216HW,2017-10-17 09:02:00,
2017-10-17 02:07:00,74.0,46.7,29.95,North,0,0.0,0.0,38,0.00,,,0.00,WUHU216HW,2017-10-17 09:07:00,
2017-10-17 02:12:00,73.8,46.5,29.95,North,0,0.0,0.0,38,0.00,,,0.00,WUHU216HW,2017-10-17 09:12:00,
2017-10-17 02:17:00,73.8,46.5,29.94,North,0,0.0,0.0,38,0.00,,,0.00,WUHU216HW,2017-10-17 09:17:00,
2017-10-17 02:22:00,73.8,46.5,29.94,North,0,0.0,0.0,38,0.00,,,0.00,WUHU216HW,2017-10-17 09:22:00,
2017-10-17 02:23:00,73.8,46.5,29.94,North,0,0.0,0.0,38,0.00,,,0.00,WUHU216HW,2017-10-17 09:23:00,
2017-10-17 02:33:00,74.2,46.8,29.94,North,0,0.0,0.0,38,0.00,,,0.00,WUHU216HW,2017-10-17 09:33:00,
2017-10-17 02:43:00,74.2,46.8,29.94,North,0,0.0,0.0,38,0.00,,,0.00,WUHU216HW,2017-10-17 09:43:00,
2017-10-17 02:53:00,74.5,47.2,29.94,North,0,0.0,0.0,38,0.00,,,0.00,WUHU216HW,2017-10-17 09:53:00,
2017-10-17 03:02:00,74.3,47.0,29.94,North,0,0.0,0.0,38,0.00,,,0.00,WUHU216HW,2017-10-17 10:02:00,
2017-10-17 03:07:00,74.0,46.7,29.94,North,0,0.0,0.0,38,0.00,,,0.00,WUHU216HW,2017-10-17 10:07:00,
2017-10-17 03:17:00,73.4,47.0,29.94,North,0,0.0,0.0,39,0.00,,,0.00,WUHU216HW,2017-10-17 10:17:00,
2017-10-17 03:22:00,73.4,47.0,29.94,North,0,0.0,0.0,39,0.00,,,0.00,WUHU216HW,2017-10-17 10:22:00,
2017-10-17 03:27:00,73.4,47.0,29.94,North,0,0.0,0.0,39,0.00,,,0.00,WUHU216HW,2017-10-17 10:27:00,
2017-10-17 03:32:00,73.6,47.1,29.94,North,0,0.0,0.0,39,0.00,,,0.00,WUHU216HW,2017-10-17 10:32:00,
2017-10-17 03:37:00,73.8,47.3,29.94,North,0,0.0,0.0,39,0.00,,,0.00,WUHU216HW,2017-10-17 10:37:00,
2017-10-17 03:45:00,73.8,47.3,29.94,North,0,0.0,0.0,39,0.00,,,0.00,WUHU216HW,2017-10-17 10:45:00,
2017-10-17 03:50:00,73.8,47.3,29.94,North,0,0.0,0.0,39,0.00,,,0.00,WUHU216HW,2017-10-17 10:50:00,
2017-10-17 03:55:00,73.6,47.1,29.94,North,0,0.0,0.0,39,0.00,,,0.00,WUHU216HW,2017-10-17 10:55:00,
2017-10-17 04:00:00,73.6,47.1,29.94,North,0,0.0,0.0,39,0.00,,,0.00,WUHU216HW,2017-10-17 11:00:00,
2017-10-17 04:05:00,73.6,47.1,29.94,North,0,0.0,0.0,39,0.00,,,0.00,WUHU216HW,2017-10-17 11:05:00,
2017-10-17 04:10:00,73.8,47.3,29.94,North,0,0.0,0.0,39,0.00,,,0.00,WUHU216HW,2017-10-17 11:10:00,
2017-10-17 04:15:00,74.3,47.8,29.94,North,0,0.0,0.0,39,0.00,,,0.00,WUHU216HW,2017-10-17 11:15:00,
2017-10-17 04:20:00,74.7,48.1,29.94,North,0,0.0,0.0,39,0.00,,,0.00,WUHU216HW,2017-10-17 11:20:00,
2017-10-17 04:25:00,75.1,47.6,29.94,North,0,0.0,0.0,38,0.00,,,0.00,WUHU216HW,2017-10-17 11:25:00,
2017-10-17 04:30:00,75.4,48.0,29.94,North,0,0.0,0.0,38,0.00,,,0.00,WUHU216HW,2017-10-17 11:30:00,
2017-10-17 04:35:00,75.6,48.2,29.94,North,0,0.0,0.0,38,0.00,,,0.00,WUHU216HW,2017-10-17 11:35:00,
2017-10-17 04:40:00,75.4,48.0,29.94,North,0,0.0,0.0,38,0.00,,,0.00,WUHU216HW,2017-10-17 11:40:00,
2017-10-17 04:45:00,75.2,47.8,29.94,North,0,0.0,0.0,38,0.00,,,0.00,WUHU216HW,2017-10-17 11:45:00,
2017-10-17 04:50:00,75.2,47.8,29.94,North,0,0.0,0.0,38,0.00,,,0.00,WUHU216HW,2017-10-17 11:50:00,
2017-10-17 04:55:00,75.1,47.6,29.94,North,0,0.0,0.0,38,0.00,,,0.00,WUHU216HW,2017-10-17 11:55:00,
2017-10-17 05:00:00,75.1,47.6,29.94,North,0,0.0,0.0,38,0.00,,,0.00,WUHU216HW,2017-10-17 12:00:00,
2017-10-17 05:05:00,74.9,47.5,29.95,North,0,0.0,0.0,38,0.00,,,0.00,WUHU216HW,2017-10-17 12:05:00,
2017-10-17 05:10:00,74.5,47.2,29.94,North,0,0.0,0.0,38,0.00,,,0.00,WUHU216HW,2017-10-17 12:10:00,
2017-10-17 05:15:00,74.7,47.4,29.95,North,0,0.0,0.0,38,0.00,,,0.00,WUHU216HW,2017-10-17 12:15:00,
2017-10-17 05:20:00,75.2,47.8,29.94,North,0,0.0,0.0,38,0.00,,,0.00,WUHU216HW,2017-10-17 12:20:00,
2017-10-17 05:25:00,75.6,48.2,29.95,North,0,0.0,0.0,38,0.00,,,0.00,WUHU216HW,2017-10-17 12:25:00,
2017-10-17 05:30:00,75.6,48.2,29.95,North,0,0.0,0.0,38,0.00,,,0.00,WUHU216HW,2017-10-17 12:30:00,
2017-10-17 05:35:00,75.2,47.8,29.95,North,0,0.0,0.0,38,0.00,,,0.00,WUHU216HW,2017-10-17 12:35:00,
2017-10-17 05:37:00,75.2,47.8,29.95,North,0,0.0,0.0,38,0.00,,,0.00,WUHU216HW,2017-10-17 12:37:00,
2017-10-17 05:42:00,75.2,47.8,29.95,North,0,0.0,0.0,38,0.00,,,0.00,WUHU216HW,2017-10-17 12:42:00,
2017-10-17 05:47:00,75.2,47.8,29.95,North,0,0.0,0.0,38,0.00,,,0.00,WUHU216HW,2017-10-17 12:47:00,
2017-10-17 05:52:00,75.1,47.6,29.95,North,0,0.0,0.0,38,0.00,,,0.00,WUHU216HW,2017-10-17 12:52:00,
2017-10-17 05:57:00,74.5,47.2,29.95,North,0,0.0,0.0,38,0.00,,,0.00,WUHU216HW,2017-10-17 12:57:00,
2017-10-17 06:02:00,74.2,46.8,29.95,North,0,0.0,0.0,38,0.00,,,0.00,WUHU216HW,2017-10-17 13:02:00,
2017-10-17 06:07:00,73.8,47.3,29.96,North,0,0.0,0.0,39,0.00,,,0.00,WUHU216HW,2017-10-17 13:07:00,
2017-10-17 06:12:00,73.4,47.0,29.96,North,0,0.0,0.0,39,0.00,,,0.00,WUHU216HW,2017-10-17 13:12:00,
2017-10-17 06:17:00,73.1,46.6,29.96,North,0,0.0,0.0,39,0.00,,,0.00,WUHU216HW,2017-10-17 13:17:00,
2017-10-17 06:22:00,72.9,46.4,29.96,North,0,0.0,0.0,39,0.00,,,0.00,WUHU216HW,2017-10-17 13:22:00,
2017-10-17 06:27:00,72.5,46.9,29.96,North,0,0.0,0.0,40,0.00,,,0.00,WUHU216HW,2017-10-17 13:27:00,
2017-10-17 06:32:00,72.4,46.7,29.96,North,0,0.0,0.0,40,0.00,,,0.00,WUHU216HW,2017-10-17 13:32:00,
2017-10-17 06:37:00,72.2,46.5,29.96,North,0,0.0,0.0,40,0.00,,,0.00,WUHU216HW,2017-10-17 13:37:00,
2017-10-17 06:42:00,72.0,46.5,29.96,North,0,0.0,0.0,40,0.00,,,0.00,WUHU216HW,2017-10-17 13:42:00,
2017-10-17 06:47:00,71.8,46.8,29.96,North,0,0.0,0.0,41,0.00,,,0.00,WUHU216HW,2017-10-17 13:47:00,
2017-10-17 06:52:00,71.6,46.7,29.96,North,0,0.0,0.0,41,0.00,,,0.00,WUHU216HW,2017-10-17 13:52:00,
2017-10-17 06:57:00,71.6,46.7,29.96,North,0,0.0,0.0,41,0.00,,,0.00,WUHU216HW,2017-10-17 13:57:00,
2017-10-17 07:02:00,71.6,46.7,29.96,North,0,0.0,0.0,41,0.00,,,0.00,WUHU216HW,2017-10-17 14:02:00,
2017-10-17 07:07:00,71.6,46.7,29.96,North,0,0.0,0.0,41,0.00,,,0.00,WUHU216HW,2017-10-17 14:07:00,
2017-10-17 07:12:00,71.8,46.8,29.96,North,0,0.0,0.0,41,0.00,,,0.00,WUHU216HW,2017-10-17 14:12:00,
2017-10-17 07:17:00,71.8,46.8,29.96,North,0,0.0,0.0,41,0.00,,,0.00,WUHU216HW,2017-10-17 14:17:00,
2017-10-17 07:22:00,72.2,47.2,29.96,North,0,0.0,0.0,41,0.00,,,0.00,WUHU216HW,2017-10-17 14:22:00,
2017-10-17 07:27:00,72.5,47.5,29.97,North,0,0.0,0.0,41,0.00,,,0.00,WUHU216HW,2017-10-17 14:27:00,
2017-10-17 07:32:00,72.9,47.8,29.97,North,0,0.0,0.0,41,0.00,,,0.00,WUHU216HW,2017-10-17 14:32:00,
2017-10-17 07:37:00,73.3,48.2,29.97,North,0,0.0,0.0,41,0.00,,,0.00,WUHU216HW,2017-10-17 14:37:00,
2017-10-17 07:42:00,73.6,48.4,29.97,North,0,0.0,0.0,41,0.00,,,0.00,WUHU216HW,2017-10-17 14:42:00,
2017-10-17 07:47:00,74.0,48.8,29.97,North,0,0.0,0.0,41,0.00,,,0.00,WUHU216HW,2017-10-17 14:47:00,
2017-10-17 07:52:00,74.2,49.0,29.97,North,0,0.0,0.0,41,0.00,,,0.00,WUHU216HW,2017-10-17 14:52:00,
2017-10-17 07:57:00,74.5,49.3,29.97,North,0,0.0,0.0,41,0.00,,,0.00,WUHU216HW,2017-10-17 14:57:00,
2017-10-17 08:02:00,74.9,49.6,29.97,North,0,0.0,0.0,41,0.00,,,0.00,WUHU216HW,2017-10-17 15:02:00,
2017-10-17 08:07:00,75.4,49.5,29.97,North,0,0.0,0.0,40,0.00,,,0.00,WUHU216HW,2017-10-17 15:07:00,
2017-10-17 08:12:00,76.0,50.0,29.98,North,0,0.0,0.0,40,0.00,,,0.00,WUHU216HW,2017-10-17 15:12:00,
2017-10-17 08:17:00,76.3,50.3,29.98,North,0,0.0,0.0,40,0.00,,,0.00,WUHU216HW,2017-10-17 15:17:00,
2017-10-17 08:22:00,76.9,50.1,29.98,North,0,0.0,0.0,39,0.00,,,0.00,WUHU216HW,2017-10-17 15:22:00,
2017-10-17 08:27:00,77.4,50.5,29.98,North,0,0.0,0.0,39,0.00,,,0.00,WUHU216HW,2017-10-17 15:27:00,
2017-10-17 08:32:00,77.8,50.9,29.98,North,0,0.0,0.0,39,0.00,,,0.00,WUHU216HW,2017-10-17 15:32:00,
2017-10-17 08:37:00,78.5,50.7,29.98,North,0,0.0,0.0,38,0.00,,,0.00,WUHU216HW,2017-10-17 15:37:00,
2017-10-17 08:42:00,79.0,51.2,29.98,North,0,0.0,0.0,38,0.00,,,0.00,WUHU216HW,2017-10-17 15:42:00,
2017-10-17 08:47:00,79.4,50.8,29.98,North,0,0.0,0.0,37,0.00,,,0.00,WUHU216HW,2017-10-17 15:47:00,
2017-10-17 08:52:00,80.1,51.4,29.98,North,0,0.0,0.0,37,0.00,,,0.00,WUHU216HW,2017-10-17 15:52:00,
2017-10-17 08:57:00,80.6,51.8,29.98,North,0,0.0,0.0,37,0.00,,,0.00,WUHU216HW,2017-10-17 15:57:00,
2017-10-17 09:02:00,81.0,50.6,29.98,North,0,0.0,0.0,35,0.00,,,0.00,WUHU216HW,2017-10-17 16:02:00,
2017-10-17 09:07:00,81.5,51.1,29.98,North,0,0.0,0.0,35,0.00,,,0.00,WUHU216HW,2017-10-17 16:07:00,
2017-10-17 09:12:00,82.1,51.6,29.98,North,0,0.0,0.0,35,0.00,,,0.00,WUHU216HW,2017-10-17 16:12:00,
2017-10-17 09:17:00,82.6,51.2,29.97,North,0,0.0,0.0,34,0.00,,,0.00,WUHU216HW,2017-10-17 16:17:00,
2017-10-17 09:22:00,83.2,51.7,29.97,North,0,0.0,0.0,34,0.00,,,0.00,WUHU216HW,2017-10-17 16:22:00,
2017-10-17 09:27:00,83.9,51.6,29.97,North,0,0.0,0.0,33,0.00,,,0.00,WUHU216HW,2017-10-17 16:27:00,
2017-10-17 09:32:00,84.4,52.0,29.97,North,0,0.0,0.0,33,0.00,,,0.00,WUHU216HW,2017-10-17 16:32:00,
2017-10-17 09:37:00,85.0,51.8,29.97,North,0,0.0,0.0,32,0.00,,,0.00,WUHU216HW,2017-10-17 16:37:00,
2017-10-17 09:42:00,85.5,52.2,29.97,North,0,0.0,0.0,32,0.00,,,0.00,WUHU216HW,2017-10-17 16:42:00,
2017-10-17 09:47:00,86.0,51.9,29.97,North,0,0.0,0.0,31,0.00,,,0.00,WUHU216HW,2017-10-17 16:47:00,
2017-10-17 09:52:00,86.6,52.4,29.97,North,0,0.0,0.0,31,0.00,,,0.00,WUHU216HW,2017-10-17 16:52:00,
2017-10-17 09:57:00,87.1,52.0,29.97,North,0,0.0,0.0,30,0.00,,,0.00,WUHU216HW,2017-10-17 16:57:00,
2017-10-17 10:02:00,87.5,52.3,29.97,North,0,0.0,0.0,30,0.00,,,0.00,WUHU216HW,2017-10-17 17:02:00,
2017-10-17 10:07:00,87.8,51.5,29.97,North,0,0.0,0.0,29,0.00,,,0.00,WUHU216HW,2017-10-17 17:07:00,
2017-10-17 10:12:00,88.2,51.9,29.97,North,0,0.0,0.0,29,0.00,,,0.00,WUHU216HW,2017-10-17 17:12:00,
2017-10-17 10:17:00,88.2,51.9,29.97,North,0,0.0,0.0,29,0.00,,,0.00,WUHU216HW,2017-10-17 17:17:00,
2017-10-17 10:22:00,88.4,52.0,29.97,North,0,0.0,0.0,29,0.00,,,0.00,WUHU216HW,2017-10-17 17:22:00,
2017-10-17 10:27:00,88.6,51.0,29.96,North,0,0.0,0.0,28,0.00,,,0.00,WUHU216HW,2017-10-17 17:27:00,
2017-10-17 10:37:00,88.7,51.2,29.96,North,0,0.0,0.0,28,0.00,,,0.00,WUHU216HW,2017-10-17 17:37:00,
2017-10-17 10:42:00,88.9,51.4,29.96,North,0,0.0,0.0,28,0.00,,,0.00,WUHU216HW,2017-10-17 17:42:00,
2017-10-17 10:47:00,88.9,51.4,29.96,North,0,0.0,0.0,28,0.00,,,0.00,WUHU216HW,2017-10-17 17:47:00,
2017-10-17 10:52:00,88.9,51.4,29.95,North,0,0.0,0.0,28,0.00,,,0.00,WUHU216HW,2017-10-17 17:52:00,
2017-10-17 10:57:00,89.1,51.6,29.95,North,0,0.0,0.0,28,0.00,,,0.00,WUHU216HW,2017-10-17 17:57:00,
2017-10-17 11:02:00,89.3,51.7,29.95,North,0,0.0,0.0,28,0.00,,,0.00,WUHU216HW,2017-10-17 18:02:00,
2017-10-17 11:07:00,89.3,51.7,29.95,North,0,0.0,0.0,28,0.00,,,0.00,WUHU216HW,2017-10-17 18:07:00,
2017-10-17 11:12:00,89.3,51.7,29.95,North,0,0.0,0.0,28,0.00,,,0.00,WUHU216HW,2017-10-17 18:12:00,
2017-10-17 11:17:00,89.6,52.0,29.95,North,0,0.0,0.0,28,0.00,,,0.00,WUHU216HW,2017-10-17 18:17:00,
2017-10-17 11:22:00,89.8,52.2,29.94,North,0,0.0,0.0,28,0.00,,,0.00,WUHU216HW,2017-10-17 18:22:00,
2017-10-17 11:27:00,90.2,52.5,29.94,North,0,0.0,0.0,28,0.00,,,0.00,WUHU216HW,2017-10-17 18:27:00,
2017-10-17 11:32:00,90.4,51.6,29.94,North,0,0.0,0.0,27,0.00,,,0.00,WUHU216HW,2017-10-17 18:32:00,
2017-10-17 11:37:00,90.7,51.8,29.94,North,0,0.0,0.0,27,0.00,,,0.00,WUHU216HW,2017-10-17 18:37:00,
2017-10-17 11:42:00,91.1,52.2,29.93,North,0,0.0,0.0,27,0.00,,,0.00,WUHU216HW,2017-10-17 18:42:00,
2017-10-17 11:47:00,91.4,52.5,29.93,North,0,0.0,0.0,27,0.00,,,0.00,WUHU216HW,2017-10-17 18:47:00,
2017-10-17 11:52:00,91.8,52.8,29.93,North,0,0.0,0.0,27,0.00,,,0.00,WUHU216HW,2017-10-17 18:52:00,
2017-10-17 11:57:00,91.4,52.5,29.93,North,0,0.0,0.0,27,0.00,,,0.00,WUHU216HW,2017-10-17 18:57:00,
2017-10-17 12:02:00,91.1,52.2,29.93,North,0,0.0,0.0,27,0.00,,,0.00,WUHU216HW,2017-10-17 19:02:00,
2017-10-17 12:07:00,91.1,52.2,29.92,North,0,0.0,0.0,27,0.00,,,0.00,WUHU216HW,2017-10-17 19:07:00,
2017-10-17 12:12:00,91.1,52.2,29.92,North,0,0.0,0.0,27,0.00,,,0.00,WUHU216HW,2017-10-17 19:12:00,
2017-10-17 12:17:00,91.3,52.4,29.92,North,0,0.0,0.0,27,0.00,,,0.00,WUHU216HW,2017-10-17 19:17:00,
2017-10-17 12:22:00,91.4,52.5,29.91,North,0,0.0,0.0,27,0.00,,,0.00,WUHU216HW,2017-10-17 19:22:00,
2017-10-17 12:27:00,91.6,51.6,29.91,North,0,0.0,0.0,26,0.00,,,0.00,WUHU216HW,2017-10-17 19:27:00,
2017-10-17 12:32:00,92.0,52.9,29.91,North,0,0.0,0.0,27,0.00,,,0.00,WUHU216HW,2017-10-17 19:32:00,
2017-10-17 12:37:00,92.3,52.1,29.91,North,0,0.0,0.0,26,0.00,,,0.00,WUHU216HW,2017-10-17 19:37:00,
2017-10-17 12:42:00,92.5,52.3,29.90,North,0,0.0,0.0,26,0.00,,,0.00,WUHU216HW,2017-10-17 19:42:00,
2017-10-17 12:47:00,92.9,52.6,29.90,North,0,0.0,0.0,26,0.00,,,0.00,WUHU216HW,2017-10-17 19:47:00,
2017-10-17 12:52:00,93.1,52.8,29.90,North,0,0.0,0.0,26,0.00,,,0.00,WUHU216HW,2017-10-17 19:52:00,
2017-10-17 12:57:00,93.1,52.8,29.90,North,0,0.0,0.0,26,0.00,,,0.00,WUHU216HW,2017-10-17 19:57:00,
2017-10-17 13:02:00,92.9,52.6,29.89,North,0,0.0,0.0,26,0.00,,,0.00,WUHU216HW,2017-10-17 20:02:00,
2017-10-17 13:07:00,92.7,51.3,29.89,North,0,0.0,0.0,25,0.00,,,0.00,WUHU216HW,2017-10-17 20:07:00,
2017-10-17 13:12:00,92.5,51.2,29.89,North,0,0.0,0.0,25,0.00,,,0.00,WUHU216HW,2017-10-17 20:12:00,
2017-10-17 13:17:00,92.2,50.9,29.89,North,0,0.0,0.0,25,0.00,,,0.00,WUHU216HW,2017-10-17 20:17:00,
2017-10-17 13:22:00,92.0,51.8,29.89,North,0,0.0,0.0,26,0.00,,,0.00,WUHU216HW,2017-10-17 20:22:00,
2017-10-17 13:27:00,91.8,50.6,29.88,North,0,0.0,0.0,25,0.00,,,0.00,WUHU216HW,2017-10-17 20:27:00,
2017-10-17 13:33:00,91.8,50.6,29.88,North,0,0.0,0.0,25,0.00,,,0.00,WUHU216HW,2017-10-17 20:33:00,
2017-10-17 13:37:00,91.8,50.6,29.88,North,0,0.0,0.0,25,0.00,,,0.00,WUHU216HW,2017-10-17 20:37:00,
2017-10-17 13:42:00,92.3,51.0,29.88,North,0,0.0,0.0,25,0.00,,,0.00,WUHU216HW,2017-10-17 20:42:00,
2017-10-17 13:47:00,92.5,51.2,29.88,North,0,0.0,0.0,25,0.00,,,0.00,WUHU216HW,2017-10-17 20:47:00,
2017-10-17 13:52:00,92.7,51.3,29.88,North,0,0.0,0.0,25,0.00,,,0.00,WUHU216HW,2017-10-17 20:52:00,
2017-10-17 13:57:00,92.7,51.3,29.87,North,0,0.0,0.0,25,0.00,,,0.00,WUHU216HW,2017-10-17 20:57:00,
2017-10-17 14:03:00,92.7,51.3,29.87,North,0,0.0,0.0,25,0.00,,,0.00,WUHU216HW,2017-10-17 21:03:00,
2017-10-17 14:08:00,92.7,51.3,29.87,North,0,0.0,0.0,25,0.00,,,0.00,WUHU216HW,2017-10-17 21:08:00,
2017-10-17 14:13:00,92.7,50.2,29.86,North,0,0.0,0.0,24,0.00,,,0.00,WUHU216HW,2017-10-17 21:13:00,
2017-10-17 14:18:00,92.9,51.5,29.86,North,0,0.0,0.0,25,0.00,,,0.00,WUHU216HW,2017-10-17 21:18:00,
2017-10-17 14:23:00,93.2,50.7,29.86,North,0,0.0,0.0,24,0.00,,,0.00,WUHU216HW,2017-10-17 21:23:00,
2017-10-17 14:27:00,93.1,50.5,29.86,North,0,0.0,0.0,24,0.00,,,0.00,WUHU216HW,2017-10-17 21:27:00,
2017-10-17 14:32:00,92.9,51.5,29.86,North,0,0.0,0.0,25,0.00,,,0.00,WUHU216HW,2017-10-17 21:32:00,
2017-10-17 14:38:00,92.9,51.5,29.86,North,0,0.0,0.0,25,0.00,,,0.00,WUHU216HW,2017-10-17 21:38:00,
2017-10-17 14:43:00,92.9,51.5,29.86,North,0,0.0,0.0,25,0.00,,,0.00,WUHU216HW,2017-10-17 21:43:00,
2017-10-17 14:48:00,92.7,51.3,29.86,North,0,0.0,0.0,25,0.00,,,0.00,WUHU216HW,2017-10-17 21:48:00,
2017-10-17 14:49:00,92.7,51.3,29.86,North,0,0.0,0.0,25,0.00,,,0.00,WUHU216HW,2017-10-17 21:49:00,
2017-10-17 14:54:00,92.7,51.3,29.86,North,0,0.0,0.0,25,0.00,,,0.00,WUHU216HW,2017-10-17 21:54:00,
2017-10-17 14:59:00,92.9,51.5,29.86,North,0,0.0,0.0,25,0.00,,,0.00,WUHU216HW,2017-10-17 21:59:00,
2017-10-17 15:04:00,92.9,51.5,29.85,North,0,0.0,0.0,25,0.00,,,0.00,WUHU216HW,2017-10-17 22:04:00,
2017-10-17 15:09:00,93.1,51.6,29.86,North,0,0.0,0.0,25,0.00,,,0.00,WUHU216HW,2017-10-17 22:09:00,
2017-10-17 15:14:00,93.1,51.6,29.86,North,0,0.0,0.0,25,0.00,,,0.00,WUHU216HW,2017-10-17 22:14:00,
2017-10-17 15:19:00,92.9,51.5,29.85,North,0,0.0,0.0,25,0.00,,,0.00,WUHU216HW,2017-10-17 22:19:00,
2017-10-17 15:24:00,92.9,51.5,29.85,North,0,0.0,0.0,25,0.00,,,0.00,WUHU216HW,2017-10-17 22:24:00,
2017-10-17 15:29:00,92.5,51.2,29.85,North,0,0.0,0.0,25,0.00,,,0.00,WUHU216HW,2017-10-17 22:29:00,
2017-10-17 15:34:00,92.3,51.0,29.85,North,0,0.0,0.0,25,0.00,,,0.00,WUHU216HW,2017-10-17 22:34:00,
2017-10-17 15:39:00,92.2,50.9,29.85,North,0,0.0,0.0,25,0.00,,,0.00,WUHU216HW,2017-10-17 22:39:00,
2017-10-17 15:44:00,92.0,49.7,29.85,North,0,0.0,0.0,24,0.00,,,0.00,WUHU216HW,2017-10-17 22:44:00,
2017-10-17 15:49:00,91.8,49.5,29.85,North,0,0.0,0.0,24,0.00,,,0.00,WUHU216HW,2017-10-17 22:49:00,
2017-10-17 15:54:00,91.8,49.5,29.85,North,0,0.0,0.0,24,0.00,,,0.00,WUHU216HW,2017-10-17 22:54:00,
2017-10-17 15:59:00,91.4,49.2,29.85,North,0,0.0,0.0,24,0.00,,,0.00,WUHU216HW,2017-10-17 22:59:00,
2017-10-17 16:04:00,91.4,49.2,29.85,North,0,0.0,0.0,24,0.00,,,0.00,WUHU216HW,2017-10-17 23:04:00,